Temperature
17 17 17 17 17 17 17 17 17 17 17 17 17 17 17 17 17 17 17 17 17 16 16 16 16 16 16 16 16 16 16 16 16 16 16 15 15 15 15 15 15 15 15
17 17 17 17 17 16 16 16 16 17 16 17 17 17 17 17 17 17 16 16 16 16 16 16 16 16 16 16 16 16 16 16 16 16 15 15 15 15 15 15 15 14 14
17 17 17 17 16 16 16 16 16 16 16 16 16 17 17 17 17 16 16 16 16 16 16 16 16 16 16 16 16 16 16 16 15 15 15 14 14 14 14 14 14 14 14
16 16 16 16 16 16 16 16 16 16 16 16 16 16 16 16 16 16 16 16 16 16 16 16 16 16 16 16 15 15 15 15 15 15 14 14 14 14 14 14 14 14 14
16 16 16 16 16 16 16 16 16 16 16 16 16 16 16 16 16 16 16 16 16 16 16 16 16 15 15 15 15 15 15 15 15 15 14 14 14 14 14 14 14 14 14
15 15 16 16 16 16 16 16 16 16 16 16 16 16 16 16 16 16 16 16 16 16 16 16 15 15 15 15 15 15 15 15 15 14 14 13 13 13 14 14 13 13 13
15 15 15 15 15 15 15 16 16 16 16 16 15 16 16 16 16 16 16 16 16 16 15 15 15 15 15 15 15 15 15 15 14 14 14 13 13 13 13 13 13 13 13
15 15 15 15 15 15 15 15 15 15 15 15 15 15 15 15 15 15 15 15 15 15 15 15 15 15 15 15 15 15 15 15 14 14 13 13 13 13 13 13 13 13 13
15 15 15 15 15 15 15 15 15 15 15 15 15 15 15 15 15 15 15 15 15 15 15 15 15 15 15 15 15 15 14 14 13 13 13 13 13 13 13 13 13 12 12
14 14 14 14 14 14 14 15 15 15 15 15 15 15 15 15 15 15 15 15 15 15 15 15 15 15 14 14 14 14 14 14 13 13 13 13 13 12 12 12 12 12 12
14 14 14 14 14 14 14 14 14 15 15 15 15 15 15 15 15 15 15 15 15 15 15 15 14 14 14 14 14 14 14 13 13 13 13 13 12 12 12 12 12 12 12
13 14 14 14 14 14 14 14 14 14 14 14 14 14 14 14 14 14 15 15 15 14 14 14 14 14 14 14 14 14 13 13 13 12 12 12 12 12 12 11 11 11 11
13 13 13 13 13 14 14 14 14 14 14 14 14 14 14 14 14 14 14 14 14 14 14 14 14 14 14 14 14 13 13 13 12 12 12 12 12 12 11 11 11 11 11
13 13 13 13 13 13 13 13 13 14 13 14 14 14 14 14 14 14 14 14 14 14 14 14 14 14 14 13 13 13 13 12 12 12 12 12 12 11 11 11 11 11 10
12 12 12 13 13 13 13 13 13 13 13 13 13 13 13 13 14 14 14 14 14 14 14 14 14 13 13 13 13 13 12 12 12 11 11 11 11 11 11 11 11 10 10
12 12 12 12 12 13 13 13 13 13 13 13 13 13 13 13 13 13 13 13 13 13 13 13 13 13 13 13 12 12 12 12 11 11 11 11 11 11 11 11 10 10 10
12 12 12 12 12 12 12 12 12 13 13 13 13 13 13 13 13 13 13 13 13 13 13 13 13 13 12 12 12 12 12 11 11 11 11 10 10 10 10 10 10 10 10
11 11 11 11 12 12 12 12 12 12 12 12 12 12 12 12 12 12 12 13 13 13 13 13 12 12 12 12 12 11 11 11 11 11 10 10 10 10 10 10 10 10 9
11 11 11 11 11 11 11 11 11 12 12 12 12 12 12 12 12 12 12 12 12 12 12 12 12 12 12 12 11 11 11 11 10 10 10 10 10 10 10 10 9 9 9
10 10 11 11 11 11 11 11 11 11 11 11 11 12 12 12 12 12 12 12 12 12 12 12 12 11 11 11 11 11 11 10 10 10 10 10 9 9 9 9 9 9 9
10 10 10 10 10 10 10 10 11 11 11 11 11 11 11 11 11 11 11 11 11 11 11 11 11 11 11 11 10 10 10 10 10 10 9 9 9 9 9 9 8 8 8
9 10 10 10 10 10 10 10 10 10 10 11 11 11 11 11 11 11 11 11 11 11 11 11 11 11 10 10 10 9 8 8 9 9 9 9 9 9 8 8 8 8 8
9 9 9 9 9 9 10 10 10 10 10 10 10 10 11 11 10 10 10 10 10 10 10 10 10 10 10 10 9 9 8 9 8 8 9 8 8 8 8 8 8 7 7
9 9 9 9 9 9 9 9 10 10 10 10 10 10 10 10 10 10 10 10 10 10 10 10 10 10 9 9 9 9 9 8 7 7 8 8 8 8 7 7 7 7 7
8 8 8 9 9 8 9 9 9 9 9 9 9 10 10 10 10 10 10 10 9 10 10 10 10 9 9 9 9 8 8 8 7 7 7 7 7 7 7 7 7 7 6
7 8 8 8 8 8 8 8 8 9 9 9 9 9 9 9 9 9 9 9 9 9 9 9 9 9 9 9 8 8 8 7 7 7 6 6 6 7 7 7 6 6 6
Wind_Speed
8 11 12 12 12 12 12 13 13 13 13 12 13 13 13 13 13 13 13 12 12 12 12 12 12 12 12 12 12 12 12 11 11 11 11 11 11 11 11 9 7 9 11
10 12 14 13 13 13 12 12 13 13 13 12 12 13 13 13 13 13 13 12 11 11 11 12 12 12 12 12 12 12 12 11 11 10 9 10 11 11 11 10 10 10 10
11 13 15 13 13 13 13 12 13 13 13 13 13 13 13 12 12 12 12 12 11 11 11 11 11 11 11 12 12 11 11 11 10 9 7 8 10 11 10 10 11 10 10
11 13 14 14 13 13 13 13 13 13 13 13 13 13 12 12 12 11 12 12 11 11 11 11 11 11 11 12 11 11 11 10 9 6 6 8 9 10 10 10 10 10 9
10 12 13 14 13 13 14 14 13 13 13 13 13 12 12 12 11 11 11 11 11 11 11 11 11 11 11 11 11 11 10 10 8 6 7 8 9 10 10 9 9 9 9
10 11 13 13 13 13 13 14 13 13 12 13 13 12 12 12 11 11 11 12 12 11 11 11 11 11 11 11 11 11 10 8 6 7 7 7 8 9 8 8 8 8 8
9 10 13 13 13 13 13 13 13 13 12 12 12 12 11 11 11 11 11 11 11 11 11 11 11 11 11 11 11 10 10 7 6 7 7 7 8 8 8 8 8 8 8
9 10 12 12 12 13 13 13 13 12 12 12 11 11 11 11 11 11 10 10 10 11 11 10 10 10 11 11 10 10 8 5 6 6 6 7 8 7 7 7 7 7 7
8 9 10 12 12 12 12 12 12 12 12 12 11 11 11 11 10 10 10 10 10 10 10 10 10 10 10 10 10 9 8 4 5 5 5 6 7 7 7 6 6 7 7
6 7 9 10 11 11 11 11 11 11 11 12 11 10 11 11 10 10 10 10 9 9 10 10 10 10 9 9 9 8 6 4 4 5 4 6 6 6 6 7 7 7 7
5 6 6 8 9 9 10 11 11 11 10 11 10 10 10 9 9 9 9 10 9 9 9 9 9 9 9 8 8 7 5 4 4 4 5 6 5 5 6 6 6 7 7
7 6 6 7 7 8 8 9 9 8 9 9 9 9 7 7 7 8 9 10 10 9 8 7 7 8 6 6 6 5 4 4 4 4 6 6 5 5 5 5 6 6 6
7 6 6 6 7 7 6 6 6 6 7 7 8 8 7 6 7 7 7 7 8 7 6 6 5 4 4 4 4 4 4 3 3 4 5 6 5 6 6 5 6 6 6
7 6 6 6 6 6 6 6 6 6 5 5 7 8 7 5 5 6 5 6 5 5 5 4 4 4 4 5 4 4 4 3 3 3 6 6 6 6 6 6 6 6 6
7 6 6 6 6 6 5 5 5 5 6 6 6 7 7 6 5 5 5 5 5 5 5 4 4 5 4 4 4 4 4 3 3 3 4 7 6 6 6 6 5 6 6
7 6 5 6 6 6 5 5 4 5 6 6 6 7 7 6 6 5 5 4 5 5 4 4 4 4 3 4 4 4 3 3 3 3 3 4 6 6 6 5 5 6 7
7 6 5 5 6 6 6 5 4 5 6 6 6 7 7 7 6 5 4 4 4 5 5 4 5 4 4 3 3 3 3 3 2 3 2 2 3 4 5 5 5 6 7
6 6 5 4 5 6 5 5 4 5 5 5 6 6 7 7 7 5 4 4 5 5 4 4 4 4 3 3 3 2 2 2 2 2 2 2 2 2 3 5 6 6 7
6 6 5 4 5 6 5 4 5 5 5 5 6 6 7 7 7 6 5 5 5 5 4 4 4 3 3 3 2 2 1 1 1 1 2 2 2 2 2 3 4 5 7
5 5 5 4 4 5 5 4 4 4 4 4 5 6 7 7 7 6 5 5 5 4 4 4 4 3 3 3 3 1 0 1 1 1 1 1 1 2 2 3 3 3 5
4 5 5 5 4 4 4 5 4 4 4 4 4 6 7 7 7 6 5 5 5 4 5 5 4 4 3 3 2 1 1 1 1 1 1 0 0 1 2 3 3 3 4
4 4 4 5 5 5 4 5 4 4 3 3 3 5 6 7 7 6 6 5 5 4 5 5 5 3 3 2 2 2 1 2 1 1 1 1 0 1 2 2 3 4 4
3 3 4 5 5 5 4 3 4 3 2 3 4 4 5 7 7 6 6 5 5 5 5 5 5 5 4 3 2 1 2 1 1 1 1 1 1 1 2 2 3 3 5
3 3 4 5 5 4 5 5 7 5 5 4 4 4 5 7 7 7 6 6 5 5 5 5 5 4 5 4 3 1 1 0 1 1 2 2 2 2 2 2 3 3 4
2 3 3 4 4 4 4 5 6 6 4 4 4 5 5 5 6 7 7 6 6 5 6 6 5 5 4 4 3 2 2 1 2 2 3 2 2 2 2 3 3 3 4
1 2 2 3 3 3 4 5 6 7 6 5 6 6 5 4 4 6 6 6 6 5 6 6 6 6 5 4 4 3 3 3 3 3 3 3 3 3 3 3 3 3 4
Wind_Direction
162 161 154 155 150 146 144 145 142 137 134 132 130 131 131 127 122 119 117 115 113 111 108 108 106 103 99 95 92 89 88 88 84 81 79 77 76 75 74 69 69 75 69
156 159 152 153 151 150 148 146 145 141 137 134 133 131 131 129 126 121 118 118 116 113 111 110 108 105 101 98 95 92 90 88 86 83 85 85 78 74 72 66 57 66 67
152 156 156 153 153 151 149 146 143 144 141 137 135 133 132 131 129 124 120 118 118 116 114 111 109 106 104 101 99 95 92 91 88 86 91 87 81 74 71 68 65 66 66
154 156 160 154 155 152 149 147 144 145 145 141 137 135 133 132 131 128 126 122 118 117 116 114 111 107 105 103 100 97 95 92 88 92 86 77 78 76 73 69 66 63 60
155 157 155 154 156 153 150 148 147 144 145 143 140 137 135 132 133 132 129 124 119 116 115 113 112 109 106 102 100 98 96 94 94 93 83 79 77 77 73 68 64 61 57
157 157 154 156 156 153 150 149 147 146 142 144 142 139 137 135 132 131 128 124 120 116 114 113 110 108 106 104 102 99 96 96 106 87 81 78 77 75 71 66 62 58 53
159 156 155 156 156 154 152 151 149 148 145 142 144 140 136 134 132 128 128 126 123 120 117 115 113 111 109 106 104 101 98 92 92 88 83 77 72 70 69 64 58 54 50
160 157 156 155 152 154 153 153 150 148 145 139 140 140 137 134 130 127 125 126 126 123 121 120 116 114 113 110 107 103 100 101 99 91 85 79 70 68 69 66 56 49 46
160 158 158 159 153 149 150 151 148 145 142 139 136 140 139 135 133 130 126 123 124 126 124 122 117 116 115 114 111 106 102 96 101 89 82 75 69 67 68 65 57 48 42
159 161 162 161 159 156 152 144 142 141 140 135 132 130 133 133 132 131 130 126 124 124 125 124 121 118 117 116 114 112 113 125 101 93 80 76 71 68 67 63 58 50 45
166 162 162 162 160 156 153 147 144 139 139 137 135 132 138 146 143 138 128 126 126 123 124 126 124 122 123 118 116 120 129 117 103 87 76 77 77 69 65 61 53 46 42
180 171 167 165 160 156 153 154 157 156 155 157 153 152 149 147 144 136 122 121 123 122 119 118 128 133 142 132 123 132 125 114 104 90 74 76 77 69 62 57 49 39 35
186 173 171 169 165 160 159 161 159 159 160 163 160 156 150 142 143 143 137 134 137 139 136 132 133 135 135 123 123 119 111 108 98 90 74 71 69 68 61 54 42 34 32
191 183 173 169 169 167 164 166 167 165 166 166 165 160 157 151 151 150 148 146 146 143 137 136 128 124 128 128 127 122 118 112 99 84 70 66 64 63 60 51 39 32 26
193 187 181 175 172 169 167 171 174 171 170 167 165 166 165 161 158 153 152 149 148 144 146 140 138 132 132 132 125 125 123 118 115 102 82 68 58 56 50 41 33 28 22
195 189 188 180 180 173 171 175 176 171 167 169 170 169 170 164 159 157 152 153 149 148 145 144 140 137 135 126 124 124 125 122 118 113 101 92 68 55 47 39 30 23 18
194 186 189 185 183 176 173 173 171 169 170 170 168 169 169 164 162 160 157 160 153 147 146 141 141 141 133 126 126 123 119 115 118 113 107 103 91 72 53 37 26 20 14
190 184 185 189 184 176 172 170 166 168 169 168 165 168 170 169 169 164 163 162 158 153 151 149 152 150 144 141 138 133 128 121 121 110 111 101 75 64 60 45 28 16 10
191 180 175 185 183 173 170 166 160 162 166 166 166 169 170 171 176 172 166 160 161 159 157 155 155 152 150 143 135 130 132 142 130 128 122 97 71 55 41 51 35 21 10
186 174 166 173 176 167 166 157 149 155 162 167 169 173 172 168 172 168 169 167 166 165 162 161 151 140 144 139 128 120 135 184 173 162 149 117 82 51 32 19 7 11 10
172 169 166 167 171 165 169 170 173 178 170 170 172 175 177 173 171 168 167 172 177 175 171 164 153 146 138 141 151 151 183 211 221 191 189 183 82 38 18 7 357 347 348
177 164 172 174 182 182 183 184 186 177 178 171 167 172 178 177 174 172 170 171 173 169 168 167 165 160 151 169 184 180 197 197 186 198 201 205 251 329 347 351 350 347 340
187 178 189 186 188 187 173 169 154 149 157 167 175 178 181 180 177 176 177 174 173 175 175 178 179 177 170 170 186 212 218 227 253 199 211 228 251 284 315 333 338 338 336
201 187 195 187 189 187 173 179 176 185 191 196 188 186 180 182 180 178 180 181 183 184 181 181 185 181 177 176 174 206 270 278 244 239 205 219 264 278 295 317 320 324 332
194 186 197 184 185 188 184 189 194 194 198 190 180 181 180 179 180 179 181 184 187 186 184 181 181 183 184 188 187 187 194 204 244 250 251 255 268 272 288 301 304 310 330
163 174 186 185 186 192 195 198 205 197 191 185 188 184 183 179 180 182 184 188 191 189 185 185 187 186 186 190 193 199 201 205 216 236 251 258 274 284 293 288 289 306 328
Height
1511 1513 1515 1517 1519 1521 1522 1524 1525 1526 1527 1529 1530 1531 1531 1532 1533 1533 1534 1534 1534 1535 1535 1535 1536 1536 1536 1536 1536 1536 1536 1536 1536 1536 1536 1536 1535 1535 1535 1535 1535 1535 1534
1510 1513 1514 1517 1519 1521 1522 1524 1525 1526 1528 1529 1530 1531 1532 1532 1533 1534 1534 1535 1535 1536 1536 1536 1536 1536 1537 1537 1536 1536 1536 1536 1536 1536 1536 1536 1536 1536 1536 1535 1535 1535 1535
1510 1512 1514 1516 1518 1520 1522 1524 1525 1527 1528 1529 1530 1531 1532 1533 1533 1534 1535 1535 1536 1536 1536 1536 1537 1537 1537 1537 1537 1537 1537 1537 1537 1537 1537 1538 1537 1537 1536 1536 1536 1536 1535
1510 1511 1514 1516 1518 1520 1522 1524 1525 1527 1528 1529 1530 1531 1532 1533 1534 1534 1535 1535 1536 1536 1537 1537 1537 1537 1538 1538 1537 1537 1537 1537 1538 1538 1538 1538 1538 1537 1537 1537 1536 1536 1535
1510 1512 1513 1515 1518 1520 1521 1523 1525 1526 1528 1529 1530 1531 1532 1533 1533 1534 1535 1535 1536 1536 1537 1537 1537 1538 1538 1538 1538 1538 1538 1538 1538 1538 1539 1538 1538 1538 1537 1537 1536 1536 1535
1510 1512 1513 1515 1517 1519 1521 1523 1524 1526 1527 1529 1530 1531 1532 1533 1533 1534 1535 1535 1536 1537 1537 1537 1538 1538 1538 1538 1538 1538 1538 1538 1539 1539 1539 1539 1538 1538 1537 1537 1536 1536 1535
1510 1511 1513 1514 1516 1518 1520 1522 1524 1525 1527 1528 1529 1531 1531 1532 1533 1534 1534 1535 1536 1536 1537 1537 1538 1538 1538 1538 1539 1539 1539 1539 1539 1539 1539 1539 1538 1538 1537 1537 1536 1536 1535
1509 1510 1512 1514 1516 1518 1520 1521 1523 1524 1526 1527 1529 1530 1531 1532 1532 1533 1534 1535 1535 1536 1537 1537 1538 1538 1538 1539 1539 1539 1539 1539 1539 1539 1539 1539 1538 1537 1537 1536 1536 1535 1535
1508 1509 1511 1513 1515 1517 1519 1521 1522 1524 1525 1526 1527 1529 1530 1531 1532 1533 1534 1534 1535 1536 1536 1537 1537 1538 1538 1538 1538 1538 1539 1539 1539 1539 1539 1538 1538 1537 1537 1536 1535 1535 1534
1507 1508 1510 1512 1514 1516 1518 1519 1521 1522 1524 1525 1526 1528 1529 1530 1531 1532 1533 1534 1534 1535 1536 1536 1537 1537 1537 1538 1538 1538 1538 1538 1539 1538 1538 1538 1537 1537 1536 1536 1535 1534 1533
1506 1507 1509 1510 1512 1514 1516 1518 1519 1521 1522 1524 1525 1526 1528 1529 1530 1531 1532 1533 1533 1534 1535 1536 1536 1537 1537 1537 1537 1538 1538 1538 1538 1538 1538 1537 1537 1536 1535 1535 1534 1533 1533
1503 1505 1507 1508 1510 1512 1514 1516 1517 1519 1521 1522 1523 1525 1526 1527 1528 1529 1530 1531 1532 1533 1534 1535 1535 1536 1536 1536 1537 1537 1537 1537 1537 1537 1537 1536 1536 1535 1534 1534 1533 1532 1532
1502 1503 1505 1507 1508 1510 1512 1514 1515 1517 1519 1520 1522 1523 1524 1525 1526 1528 1529 1530 1531 1532 1533 1533 1534 1535 1535 1535 1536 1536 1536 1536 1536 1536 1536 1536 1535 1534 1534 1533 1532 1532 1530
1499 1501 1502 1504 1506 1508 1510 1512 1513 1515 1517 1518 1519 1521 1522 1523 1525 1526 1527 1528 1529 1530 1531 1532 1533 1533 1534 1534 1534 1535 1535 1535 1536 1535 1535 1535 1534 1534 1533 1532 1531 1530 1529
1497 1498 1500 1502 1504 1506 1507 1509 1511 1513 1514 1516 1517 1519 1521 1522 1523 1524 1525 1527 1528 1529 1530 1530 1531 1532 1532 1533 1533 1534 1534 1534 1534 1534 1534 1534 1534 1533 1532 1531 1530 1529 1528
1494 1496 1498 1500 1501 1503 1505 1507 1509 1510 1512 1514 1516 1517 1519 1520 1521 1522 1523 1525 1526 1527 1528 1529 1530 1531 1531 1531 1532 1532 1533 1533 1533 1533 1533 1533 1532 1532 1531 1530 1529 1528 1526
1492 1493 1495 1497 1499 1501 1503 1505 1506 1508 1510 1511 1513 1515 1516 1518 1519 1521 1522 1523 1524 1525 1527 1527 1528 1529 1530 1530 1531 1531 1531 1532 1532 1532 1531 1531 1531 1530 1529 1528 1527 1526 1525
1489 1491 1493 1494 1496 1498 1500 1502 1504 1505 1507 1509 1511 1513 1514 1516 1517 1519 1520 1521 1523 1524 1525 1526 1526 1527 1528 1529 1529 1530 1530 1530 1530 1530 1530 1529 1529 1529 1528 1527 1526 1525 1523
1487 1488 1490 1491 1493 1495 1497 1499 1501 1503 1505 1507 1508 1510 1512 1514 1515 1516 1517 1519 1520 1522 1523 1524 1525 1525 1526 1527 1528 1528 1528 1528 1529 1528 1528 1528 1527 1527 1526 1525 1524 1523 1522
1484 1486 1488 1489 1490 1492 1495 1497 1499 1501 1502 1504 1506 1508 1509 1511 1513 1514 1515 1516 1518 1519 1521 1522 1523 1523 1525 1525 1526 1526 1527 1527 1527 1527 1527 1526 1526 1525 1525 1524 1523 1521 1520
1482 1483 1484 1486 1487 1489 1491 1493 1496 1498 1500 1502 1503 1505 1507 1509 1510 1512 1513 1514 1516 1517 1518 1520 1521 1521 1522 1523 1524 1525 1525 1525 1525 1525 1525 1525 1524 1524 1523 1522 1521 1519 1517
1479 1479 1481 1483 1484 1486 1489 1491 1493 1495 1497 1499 1500 1502 1504 1506 1508 1509 1511 1512 1513 1515 1516 1517 1519 1519 1520 1521 1522 1523 1524 1525 1523 1523 1523 1523 1523 1522 1521 1520 1519 1517 1515
1476 1477 1479 1480 1481 1483 1486 1488 1490 1492 1494 1496 1497 1499 1501 1503 1505 1507 1508 1510 1510 1512 1513 1515 1516 1517 1518 1519 1520 1521 1523 1523 1522 1521 1521 1521 1521 1520 1519 1518 1517 1515 1513
1473 1475 1477 1478 1479 1481 1483 1484 1486 1488 1490 1492 1495 1497 1499 1501 1502 1504 1506 1507 1509 1510 1511 1512 1514 1515 1516 1516 1518 1518 1520 1520 1521 1520 1520 1519 1519 1518 1517 1516 1514 1513 1511
1471 1472 1474 1475 1477 1479 1480 1482 1484 1486 1488 1490 1492 1494 1495 1497 1499 1501 1503 1504 1506 1507 1508 1510 1511 1512 1513 1514 1515 1515 1516 1517 1517 1518 1517 1517 1516 1516 1514 1513 1512 1511 1508
1469 1470 1472 1472 1474 1476 1478 1480 1482 1484 1485 1486 1488 1490 1491 1493 1495 1498 1500 1501 1502 1504 1505 1507 1508 1509 1510 1511 1512 1513 1513 1513 1514 1515 1514 1514 1513 1513 1511 1511 1510 1508 1506